This demonstration page uses our WeatherBlox Daily Observations layout. Learn more.

39.29038, -76.61219

Hourly Observations for July 14, 2018

Temp ( °F °C ) Dew Point ( °F °C ) Humidity (%) Winds ( mph kmh ) Pressure ( in mb ) Visibility ( mi km ) Precip ( " mm )
12:54 am 00:54 undefined 76 24.4 62 16.7 62 62 undefined N/A 30.2 1023 N/A 0 0
1:54 am 01:54 undefined 75 23.9 62 16.7 64 64 undefined N/A 30.19 1023 N/A 0 0
2:54 am 02:54 undefined 74 23.3 61 16.1 64 64 undefined N/A 30.2 1023 N/A 0 0
3:54 am 03:54 undefined 74 23.3 61 16.1 64 64 undefined N/A 30.19 1022 N/A 0 0
4:54 am 04:54 undefined 73 22.8 62 16.7 69 69 undefined N/A 30.18 1022 N/A 0 0
5:54 am 05:54 undefined 73 22.8 61 16.1 66 66 undefined N/A 30.16 1022 N/A 0 0
6:54 am 06:54 undefined 73 22.8 62 16.7 69 69 undefined N/A 30.17 1022 N/A 0 0
7:54 am 07:54 undefined 77 25 61 16.1 58 58 undefined N/A 30.17 1022 N/A 0 0
8:54 am 08:54 undefined 81 27.2 58 14.4 45 45 undefined N/A 30.17 1022 N/A 0 0
9:54 am 09:54 undefined 84 28.9 57 13.9 40 40 undefined N/A 30.16 1021 N/A 0 0
10:54 am 10:54 undefined 87 30.6 56 13.3 35 35 undefined N/A 30.15 1021 N/A 0 0
11:54 am 11:54 undefined 89 31.7 57 13.9 34 34 undefined N/A 30.15 1021 N/A 0 0
12:54 pm 12:54 undefined 90 32.2 54 12.2 29 29 undefined N/A 30.13 1020 N/A 0 0
1:54 pm 13:54 undefined 91 32.8 54 12.2 28 28 undefined N/A 30.11 1020 N/A 0 0
2:54 pm 14:54 undefined 92 33.3 51 10.6 25 25 undefined N/A 30.1 1019 N/A 0 0
3:54 pm 15:54 undefined 94 34.4 52 11.1 24 24 undefined N/A 30.09 1019 N/A 0 0
4:54 pm 16:54 undefined 93 33.9 54 12.2 27 27 undefined N/A 30.08 1019 N/A 0 0
5:54 pm 17:54 undefined 91 32.8 55 12.8 30 30 undefined N/A 30.06 1018 N/A 0 0
6:54 pm 18:54 undefined 90 32.2 57 13.9 33 33 undefined N/A 30.04 1017 N/A 0 0
7:54 pm 19:54 undefined 88 31.1 58 14.4 36 36 undefined N/A 30.04 1017 N/A 0 0
8:54 pm 20:54 undefined 85 29.4 62 16.7 46 46 undefined N/A 30.04 1017 N/A 0 0
9:54 pm 21:54 undefined 83 28.3 62 16.7 49 49 undefined N/A 30.06 1018 N/A 0 0
10:54 pm 22:54 undefined 81 27.2 62 16.7 53 53 undefined N/A 30.07 1018 N/A 0 0
11:54 pm 23:54 undefined 80 26.7 62 16.7 54 54 undefined N/A 30.08 1019 N/A 0 0

Powered by AerisWeather